Regional Weather Roundup
Issued by NWS Tiyan, Guam

Home | Current Version | Previous Version | Text Only | Print | Product List | Glossary On
Versions: 1 2 3 4 5 6 7 8 9 10 11 12 13 14 15 16 17 18 19 20 21 22 23 24 25 26 27 28 29 30 31 32 33 34 35 36 37 38 39 40 41 42 43 44 45 46 47 48 49 50
000
ASGM40 PGUM 020612
RWRGUM
WEATHER ROUNDUP FOR THE MARIANAS
NATIONAL WEATHER SERVICE TIYAN GU
400 PM CHST SAT AUG 02 2014

GUZ001>004-020700-
MARIANA ISLANDS-

CITY           SKY/WX    TMP DP  RH WIND       PRES   REMARKS
GUAM AIRPORT   LGT RAIN  82  77  83 E7        29.79F HX  91
ANDERSEN AFB   HVY RAIN  81  77  89 SW9       29.80
ROTA AIRPORT   PTSUNNY   81  77  89 VRB3      29.79S
TINIAN AP      PTSUNNY   84  75  74 SW5       29.76S HX  92
SAIPAN AP      MOSUNNY   84  75  74 SW5       29.77F HX  92

$$




USA.gov is the U.S. government's official web portal to all federal, state and local government web resources and services.